TimeEST,TemperatureF,Dew PointF,Humidity,Sea Level PressureIn,VisibilityMPH,Wind Direction,Wind SpeedMPH,Gust SpeedMPH,PrecipitationIn,Events,Conditions,WindDirDegrees,DateUTC
12:31 AM,44.6,42.8,93,30.27,10.0,North,3.5,-,N/A,,Overcast,350,2012-11-16 05:31:00
12:49 AM,44.6,42.8,93,30.27,10.0,North,5.8,-,N/A,,Overcast,360,2012-11-16 05:49:00
12:55 AM,45.0,43.2,93,30.27,10.0,North,4.6,-,N/A,,Overcast,360,2012-11-16 05:55:00
1:24 AM,44.6,42.8,93,30.26,10.0,NNE,5.8,-,N/A,,Overcast,30,2012-11-16 06:24:00
1:37 AM,44.6,42.8,93,30.27,10.0,NNE,3.5,-,N/A,,Overcast,30,2012-11-16 06:37:00
1:55 AM,45.1,43.2,93,30.27,10.0,NNE,3.5,-,N/A,,Overcast,30,2012-11-16 06:55:00
2:55 AM,45.0,43.0,93,30.27,10.0,North,3.5,-,N/A,,Overcast,360,2012-11-16 07:55:00
3:55 AM,45.0,43.0,93,30.27,10.0,North,4.6,-,N/A,,Overcast,10,2012-11-16 08:55:00
4:00 AM,44.6,42.8,93,30.27,10.0,NNE,4.6,-,N/A,,Overcast,20,2012-11-16 09:00:00
4:02 AM,44.6,42.8,93,30.27,10.0,North,4.6,-,N/A,,Overcast,10,2012-11-16 09:02:00
4:46 AM,44.6,42.8,93,30.27,10.0,NNE,4.6,-,N/A,,Overcast,20,2012-11-16 09:46:00
4:55 AM,44.6,42.6,93,30.27,10.0,NE,4.6,-,N/A,,Overcast,40,2012-11-16 09:55:00
5:55 AM,44.6,42.4,92,30.27,10.0,NNE,6.9,-,N/A,,Overcast,30,2012-11-16 10:55:00
6:55 AM,42.6,41.0,94,30.28,10.0,NNE,4.6,-,N/A,,Clear,30,2012-11-16 11:55:00
7:55 AM,43.5,41.4,92,30.30,10.0,NNE,4.6,-,N/A,,Clear,20,2012-11-16 12:55:00
8:55 AM,47.5,42.3,82,30.31,7.0,NE,9.2,-,N/A,,Clear,50,2012-11-16 13:55:00
9:55 AM,50.7,41.4,70,30.32,6.0,NNE,10.4,-,N/A,,Haze,30,2012-11-16 14:55:00
10:55 AM,52.5,41.2,65,30.32,10.0,NNE,8.1,-,N/A,,Clear,30,2012-11-16 15:55:00
11:55 AM,55.4,41.7,60,30.30,10.0,North,10.4,-,N/A,,Scattered Clouds,360,2012-11-16 16:55:00
12:55 PM,55.8,40.3,56,30.28,10.0,NNE,6.9,-,N/A,,Partly Cloudy,20,2012-11-16 17:55:00
1:32 PM,57.2,39.2,51,30.27,10.0,NE,6.9,-,N/A,,Clear,50,2012-11-16 18:32:00
1:55 PM,56.8,39.2,52,30.27,10.0,North,10.4,-,N/A,,Clear,10,2012-11-16 18:55:00
2:55 PM,57.4,38.3,49,30.27,10.0,NNE,9.2,-,N/A,,Clear,30,2012-11-16 19:55:00
3:55 PM,55.8,36.9,49,30.27,10.0,NNE,6.9,-,N/A,,Clear,30,2012-11-16 20:55:00
4:55 PM,53.8,36.7,52,30.29,10.0,NNE,4.6,-,N/A,,Clear,20,2012-11-16 21:55:00
5:55 PM,46.0,37.0,71,30.31,10.0,NE,5.8,-,N/A,,Clear,40,2012-11-16 22:55:00
6:55 PM,43.7,36.7,76,30.33,10.0,NE,3.5,-,N/A,,Clear,50,2012-11-16 23:55:00
7:55 PM,42.8,36.9,80,30.35,10.0,ENE,3.5,-,N/A,,Clear,60,2012-11-17 00:55:00
8:55 PM,40.3,37.6,90,30.36,10.0,Calm,Calm,-,N/A,,Clear,0,2012-11-17 01:55:00
9:55 PM,37.6,36.1,95,30.37,10.0,Calm,Calm,-,N/A,,Clear,0,2012-11-17 02:55:00
10:55 PM,37.8,36.0,93,30.38,10.0,Calm,Calm,-,N/A,,Clear,0,2012-11-17 03:55:00
11:55 PM,36.5,34.5,93,30.38,10.0,Calm,Calm,-,N/A,,Clear,0,2012-11-17 04:55:00